TimeCST,TemperatureF,Dew PointF,Humidity,Sea Level PressureIn,VisibilityMPH,Wind Direction,Wind SpeedMPH,Gust SpeedMPH,PrecipitationIn,Events,Conditions,WindDirDegrees,DateUTC
12:15 AM,10.4,6.8,85,30.11,10.0,Calm,Calm,-,N/A,,Clear,0,2013-01-16 06:15:00
12:36 AM,10.4,6.8,85,30.10,-9999.0,Calm,Calm,-,N/A,,Unknown,0,2013-01-16 06:36:00
12:55 AM,10.4,3.2,73,30.10,10.0,Calm,Calm,-,N/A,,Clear,0,2013-01-16 06:55:00
1:15 AM,8.6,1.4,73,30.09,10.0,Calm,Calm,-,N/A,,Clear,0,2013-01-16 07:15:00
1:35 AM,8.6,5.0,85,30.08,10.0,Calm,Calm,-,N/A,,Clear,0,2013-01-16 07:35:00
1:55 AM,10.4,6.8,85,30.08,10.0,Calm,Calm,-,N/A,,Clear,0,2013-01-16 07:55:00
2:15 AM,14.0,8.6,79,30.08,10.0,Calm,Calm,-,N/A,,Clear,0,2013-01-16 08:15:00
2:35 AM,14.0,8.6,79,30.08,10.0,Calm,Calm,-,N/A,,Clear,0,2013-01-16 08:35:00
2:55 AM,12.2,8.6,85,30.07,10.0,Calm,Calm,-,N/A,,Clear,0,2013-01-16 08:55:00
3:15 AM,14.0,8.6,79,30.06,10.0,Calm,Calm,-,N/A,,Clear,0,2013-01-16 09:15:00
3:35 AM,14.0,8.6,79,30.05,10.0,Calm,Calm,-,N/A,,Clear,0,2013-01-16 09:35:00
3:55 AM,14.0,8.6,79,30.04,10.0,SW,3.5,-,N/A,,Clear,220,2013-01-16 09:55:00
4:15 AM,14.0,8.6,79,30.02,10.0,Calm,Calm,-,N/A,,Clear,0,2013-01-16 10:15:00
4:35 AM,14.0,8.6,79,30.01,10.0,SW,3.5,-,N/A,,Clear,230,2013-01-16 10:35:00
4:55 AM,15.8,8.6,73,30.01,10.0,SW,4.6,-,N/A,,Clear,230,2013-01-16 10:55:00
5:15 AM,15.8,8.6,73,30.01,10.0,WSW,5.8,-,N/A,,Clear,240,2013-01-16 11:15:00
5:35 AM,15.8,6.8,68,30.00,10.0,WSW,5.8,-,N/A,,Clear,240,2013-01-16 11:35:00
5:55 AM,15.8,6.8,68,29.99,10.0,WSW,3.5,-,N/A,,Clear,240,2013-01-16 11:55:00
6:35 AM,15.8,8.6,73,29.97,10.0,SSW,4.6,-,N/A,,Clear,210,2013-01-16 12:35:00
6:55 AM,15.8,6.8,68,29.96,10.0,SSW,4.6,-,N/A,,Clear,210,2013-01-16 12:55:00
7:15 AM,15.8,8.6,73,29.96,10.0,SW,4.6,-,N/A,,Clear,220,2013-01-16 13:15:00
7:35 AM,17.6,8.6,68,29.96,10.0,SW,4.6,-,N/A,,Clear,230,2013-01-16 13:35:00
7:55 AM,17.6,8.6,68,29.96,10.0,SW,5.8,-,N/A,,Clear,220,2013-01-16 13:55:00
8:15 AM,19.4,10.4,68,29.97,10.0,SW,6.9,-,N/A,,Clear,230,2013-01-16 14:15:00
8:35 AM,19.4,10.4,68,29.96,10.0,SW,6.9,50.6,N/A,,Clear,230,2013-01-16 14:35:00
8:55 AM,21.2,12.2,68,29.95,10.0,SW,9.2,-,N/A,,Clear,230,2013-01-16 14:55:00
9:15 AM,24.8,12.2,59,29.94,10.0,WSW,6.9,-,N/A,,Clear,240,2013-01-16 15:15:00
9:35 AM,24.8,14.0,64,29.93,10.0,SW,8.1,-,N/A,,Clear,230,2013-01-16 15:35:00
9:55 AM,26.6,15.8,64,29.93,10.0,SW,8.1,-,N/A,,Clear,230,2013-01-16 15:55:00
10:15 AM,28.4,15.8,59,29.93,10.0,WSW,10.4,16.1,N/A,,Clear,240,2013-01-16 16:15:00
10:35 AM,30.2,17.6,60,29.91,10.0,WSW,9.2,17.3,N/A,,Clear,240,2013-01-16 16:35:00
10:55 AM,30.2,19.4,64,29.90,10.0,SW,11.5,17.3,N/A,,Clear,230,2013-01-16 16:55:00
11:15 AM,32.0,19.4,60,29.89,10.0,SW,10.4,18.4,N/A,,Clear,230,2013-01-16 17:15:00
11:35 AM,33.8,21.2,60,29.88,10.0,WSW,11.5,19.6,N/A,,Clear,240,2013-01-16 17:35:00
11:55 AM,33.8,21.2,60,29.88,10.0,WSW,12.7,18.4,N/A,,Partly Cloudy,240,2013-01-16 17:55:00
12:15 PM,35.6,21.2,56,29.86,10.0,WSW,17.3,23.0,N/A,,Partly Cloudy,240,2013-01-16 18:15:00
12:35 PM,35.6,21.2,56,29.85,10.0,WSW,16.1,21.9,N/A,,Clear,240,2013-01-16 18:35:00
12:55 PM,33.8,21.2,60,29.86,10.0,WSW,13.8,23.0,N/A,,Mostly Cloudy,240,2013-01-16 18:55:00
1:15 PM,33.8,21.2,60,29.86,10.0,WSW,12.7,20.7,N/A,,Overcast,240,2013-01-16 19:15:00
1:35 PM,33.8,23.0,65,29.86,10.0,WSW,10.4,-,N/A,,Overcast,240,2013-01-16 19:35:00
2:15 PM,35.6,23.0,60,29.86,10.0,WSW,16.1,20.7,N/A,,Overcast,250,2013-01-16 20:15:00
2:35 PM,35.6,24.8,65,29.87,10.0,WSW,10.4,-,N/A,,Overcast,240,2013-01-16 20:35:00
2:55 PM,35.6,24.8,65,29.87,10.0,WSW,9.2,-,N/A,,Overcast,240,2013-01-16 20:55:00
3:15 PM,35.6,24.8,65,29.88,10.0,WSW,11.5,17.3,N/A,,Overcast,240,2013-01-16 21:15:00
3:35 PM,35.6,26.6,70,29.89,10.0,WSW,10.4,16.1,N/A,,Overcast,240,2013-01-16 21:35:00
3:55 PM,35.6,26.6,70,29.91,10.0,WSW,8.1,-,N/A,,Overcast,240,2013-01-16 21:55:00
4:15 PM,35.6,26.6,70,29.92,10.0,WSW,9.2,-,N/A,,Overcast,240,2013-01-16 22:15:00
4:35 PM,35.6,26.6,70,29.93,10.0,WSW,9.2,-,N/A,,Overcast,240,2013-01-16 22:35:00
4:55 PM,33.8,26.6,75,29.93,10.0,SW,8.1,-,N/A,,Overcast,230,2013-01-16 22:55:00
5:15 PM,33.8,26.6,75,29.94,10.0,WSW,6.9,-,N/A,,Overcast,240,2013-01-16 23:15:00
5:55 PM,32.0,24.8,75,29.95,10.0,SW,3.5,-,N/A,,Partly Cloudy,230,2013-01-16 23:55:00
6:15 PM,30.2,24.8,80,29.96,10.0,SW,5.8,-,N/A,,Clear,230,2013-01-17 00:15:00
6:35 PM,30.2,24.8,80,29.97,10.0,Calm,Calm,-,N/A,,Scattered Clouds,0,2013-01-17 00:35:00
6:55 PM,30.2,24.8,80,29.98,-9999.0,Calm,Calm,-,N/A,,Overcast,0,2013-01-17 00:55:00
7:15 PM,32.0,26.6,80,29.99,-9999.0,Calm,Calm,-,N/A,,Overcast,0,2013-01-17 01:15:00
7:35 PM,32.0,26.6,80,30.00,-9999.0,SW,3.5,-,N/A,,Overcast,230,2013-01-17 01:35:00
7:55 PM,33.8,26.6,75,30.00,10.0,WSW,4.6,-,N/A,,Overcast,240,2013-01-17 01:55:00
8:15 PM,33.8,28.4,81,30.01,10.0,WSW,5.8,-,N/A,,Overcast,240,2013-01-17 02:15:00
8:35 PM,33.8,28.4,81,30.02,10.0,SW,4.6,-,N/A,,Overcast,230,2013-01-17 02:35:00
8:55 PM,33.8,28.4,81,30.02,10.0,WSW,3.5,-,N/A,,Overcast,240,2013-01-17 02:55:00
9:15 PM,33.8,28.4,81,30.02,10.0,West,5.8,-,N/A,,Overcast,260,2013-01-17 03:15:00
9:35 PM,33.8,28.4,81,30.03,10.0,WSW,5.8,-,N/A,,Overcast,250,2013-01-17 03:35:00
9:55 PM,33.8,28.4,81,30.03,10.0,WSW,4.6,-,N/A,,Overcast,240,2013-01-17 03:55:00
10:15 PM,33.8,28.4,81,30.03,10.0,WSW,4.6,-,N/A,,Overcast,240,2013-01-17 04:15:00
10:35 PM,33.8,28.4,81,30.02,10.0,SW,3.5,-,N/A,,Overcast,220,2013-01-17 04:35:00
10:55 PM,33.8,28.4,81,30.03,10.0,West,5.8,-,N/A,,Overcast,260,2013-01-17 04:55:00
11:15 PM,33.8,28.4,81,30.05,10.0,WNW,6.9,-,N/A,,Overcast,290,2013-01-17 05:15:00
11:35 PM,35.6,28.4,75,30.07,10.0,NW,10.4,-,N/A,,Overcast,310,2013-01-17 05:35:00
11:55 PM,35.6,28.4,75,30.08,10.0,NW,5.8,-,N/A,,Overcast,310,2013-01-17 05:55:00